CW4629 Weather Reports


time (UTC)temp
C
wind
direction
speed
KPH
gust
KPH
rain 1hr
cm
rain 24hr
cm
rain mn
cm
humidity
%
barometer
mb
20260507001616 27 3 14.5 19.3 0.00 0.00 0.00 12 1016.4
20260507000616 27 336 16.1 25.7 0.00 0.00 0.00 12 1016.4
20260506235616 27 326 14.5 20.9 0.00 0.00 0.00 11 1016.3
20260506234632 27 359 14.5 22.5 0.00 0.00 0.00 12 1016.2
20260506233717 27 356 16.1 29.0 0.00 0.00 0.00 12 1016.2
20260506232716 27 342 12.9 20.9 0.00 0.00 0.00 12 1016.2
20260506231733 27 360 12.9 22.5 0.00 0.00 0.00 13 1016.1
20260506231633 26 356 20.9 33.8 0.00 0.00 0.00 13 1016.0
20260506224715 27 312 14.5 20.9 0.00 0.00 0.00 16 1016.2
20260506223732 27 317 17.7 27.4 0.00 0.00 0.00 17 1016.2
20260506222715 27 357 9.7 19.3 0.00 0.00 0.00 16 1016.4
20260506221716 27 323 16.1 29.0 0.00 0.00 0.00 18 1016.3
20260506215816 26 323 14.5 22.5 0.00 0.00 0.00 19 1016.6
20260506214833 26 308 22.5 38.6 0.00 0.00 0.00 19 1016.5
20260506213916 27 308 20.9 30.6 0.00 0.00 0.00 17 1016.5
20260506213015 27 338 12.9 20.9 0.00 0.00 0.00 19 1016.6
20260506212016 26 352 16.1 25.7 0.00 0.00 0.00 20 1016.8
20260506211031 26 305 20.9 32.2 0.00 0.00 0.00 19 1016.9
20260506204114 26 323 16.1 25.7 0.00 0.00 0.00 19 1017.0
20260506203116 26 1 12.9 22.5 0.00 0.00 0.00 19 1017.1
20260506201133 26 353 12.9 24.1 0.00 0.00 0.00 20 1017.2
20260506195217 25 1 12.9 22.5 0.00 0.00 0.00 20 1017.2
20260506194214 25 345 14.5 24.1 0.00 0.00 0.00 21 1017.4
20260506193233 25 14 11.3 17.7 0.00 0.00 0.00 20 1017.4
20260506192215 25 32 4.8 8.0 0.00 0.00 0.00 22 1017.4
20260506192116 25 320 4.8 8.0 0.00 0.00 0.00 21 1017.4
20260506191130 25 329 19.3 27.4 0.00 0.00 0.00 22 1017.1
20260506190215 25 11 12.9 24.1 0.00 0.00 0.00 22 1017.3
20260506185216 25 106 6.4 8.0 0.00 0.00 0.00 23 1017.4
20260506183232 24 281 9.7 14.5 0.00 0.00 0.00 24 1017.4
20260506182216 24 294 8.0 17.7 0.00 0.00 0.00 25 1017.7
20260506181231 24 295 4.8 9.7 0.00 0.00 0.00 24 1017.7
20260506180215 24 17 9.7 17.7 0.00 0.00 0.00 24 1017.6
20260506175215 23 333 8.0 16.1 0.00 0.00 0.00 25 1017.7
20260506174231 23 354 11.3 20.9 0.00 0.00 0.00 26 1017.6
20260506171233 22 343 9.7 16.1 0.00 0.00 0.00 27 1018.0
20260506170315 21 315 0.0 4.8 0.00 0.00 0.00 27 1017.9
20260506165316 21 261 11.3 19.3 0.00 0.00 0.00 27 1017.9
20260506164315 21 263 6.4 14.5 0.00 0.00 0.00 27 1018.1
20260506162330 20 277 9.7 16.1 0.00 0.00 0.00 28 1018.2
20260506161414 20 280 6.4 11.3 0.00 0.00 0.00 27 1018.2
20260506161331 20 300 6.4 11.3 0.00 0.00 0.00 26 1018.2
20260506160415 20 283 9.7 16.1 0.00 0.00 0.00 27 1018.4
20260506154514 19 246 3.2 6.4 0.00 0.00 0.00 27 1018.4
20260506153530 20 271 4.8 8.0 0.00 0.00 0.00 27 1018.4
20260506153416 20 276 6.4 9.7 0.00 0.00 0.00 28 1018.5
20260506151416 19 298 0.0 3.2 0.00 0.00 0.00 29 1018.5
20260506150415 19 349 1.6 4.8 0.00 0.00 0.00 29 1018.5
20260506145514 18 337 0.0 3.2 0.00 0.00 0.00 31 1018.5
20260506144516 17 319 3.2 6.4 0.00 0.00 0.00 32 1018.5
20260506143515 16 297 6.4 8.0 0.00 0.00 0.00 34 1018.4
20260506142614 16 284 6.4 8.0 0.00 0.00 0.00 35 1018.2
20260506141615 15 307 8.0 9.7 0.00 0.00 0.00 36 1018.2
20260506140614 15 316 1.6 3.2 0.00 0.00 0.00 37 1018.0
20260506140531 15 335 1.6 4.8 0.00 0.00 0.00 37 1017.9
20260506135613 14 318 6.4 9.7 0.00 0.00 0.00 37 1018.0
20260506135530 14 314 8.0 11.3 0.00 0.00 0.00 37 1017.9
20260506133515 13 329 4.8 8.0 0.00 0.00 0.00 38 1017.6
20260506132515 13 354 4.8 11.3 0.00 0.00 0.00 38 1017.4
20260506131432 13 326 3.2 9.7 0.00 0.00 0.00 40 1017.2
20260506130416 13 360 4.8 6.4 0.00 0.00 0.00 40 1017.0
20260506125415 13 351 1.6 3.2 0.00 0.00 0.00 40 1016.8
20260506123515 13 360 4.8 6.4 0.00 0.00 0.00 38 1016.6
20260506122530 13 292 0.0 0.0 0.00 0.00 0.00 37 1016.5
20260506121532 14 292 3.2 4.8 0.00 0.00 0.00 34 1016.4
20260506120616 15 315 0.0 0.0 0.00 0.00 0.00 34 1016.3
20260506114629 15 315 0.0 0.0 0.00 0.00 0.00 34 1016.2
20260506113615 15 292 4.8 4.8 0.00 0.00 0.00 34 1016.0
20260506112616 15 292 3.2 6.4 0.00 0.00 0.00 33 1015.9
20260506111616 15 13 3.2 6.4 0.00 0.00 0.00 33 1015.9
20260506110615 15 341 4.8 8.0 0.00 0.00 0.00 34 1015.6
20260506105715 15 292 0.0 0.0 0.00 0.00 0.00 34 1015.5
20260506104715 15 292 0.0 4.8 0.00 0.00 0.00 33 1015.4
20260506103814 15 316 1.6 4.8 0.00 0.00 0.00 32 1015.4
20260506103731 15 315 3.2 3.2 0.00 0.00 0.00 32 1015.4
20260506102714 16 4 4.8 8.0 0.00 0.00 0.00 32 1015.4
20260506101715 16 10 3.2 8.0 0.00 0.00 0.00 32 1015.4
20260506100731 16 352 4.8 6.4 0.00 0.00 0.00 32 1015.1
20260506095730 16 328 3.2 4.8 0.00 0.00 0.00 31 1015.2
20260506093814 17 311 3.2 6.4 0.00 0.00 0.00 30 1015.1
20260506092729 17 311 8.0 12.9 0.00 0.00 0.00 29 1014.9
20260506091814 17 357 4.8 9.7 0.00 0.00 0.00 29 1014.9
20260506090816 17 314 3.2 8.0 0.00 0.00 0.00 28 1014.7
20260506085816 17 315 0.0 3.2 0.00 0.00 0.00 29 1014.7
20260506084915 17 325 4.8 8.0 0.00 0.00 0.00 28 1014.7
20260506082116 17 2 4.8 6.4 0.00 0.00 0.00 28 1014.5
20260506082014 17 311 3.2 8.0 0.00 0.00 0.00 28 1014.5
20260506081032 18 309 8.0 11.3 0.00 0.00 0.00 28 1014.4
20260506073215 17 292 4.8 8.0 0.00 0.00 0.00 28 1014.3
20260506072229 17 292 0.0 0.0 0.00 0.00 0.00 30 1014.4
20260506071215 17 247 0.0 0.0 0.00 0.00 0.00 29 1014.5
20260506070215 18 247 0.0 0.0 0.00 0.00 0.00 27 1014.2
20260506062229 18 359 0.0 1.6 0.00 0.00 0.00 26 1014.0
20260506050533 18 292 0.0 0.0 0.00 0.00 0.00 24 1013.3
20260506044533 18 292 0.0 1.6 0.00 0.00 0.00 24 1013.1
20260506043531 18 292 0.0 0.0 0.00 0.00 0.00 22 1012.9
20260506043416 19 292 0.0 0.0 0.00 0.00 0.00 22 1013.0
20260506042431 19 292 0.0 1.6 0.00 0.00 0.00 22 1012.8
20260506040517 20 270 3.2 4.8 0.00 0.00 0.00 21 1012.5
20260506035531 19 276 8.0 11.3 0.00 0.00 0.00 21 1012.5
20260506034616 19 270 1.6 4.8 0.00 0.00 0.00 21 1012.2
20260506033618 19 247 0.0 0.0 0.00 0.00 0.00 21 1012.1
20260506032632 20 247 0.0 0.0 0.00 0.00 0.00 20 1011.9
20260506031715 20 250 0.0 4.8 0.00 0.00 0.00 20 1011.8
20260506030715 20 231 6.4 17.7 0.00 0.00 0.00 20 1011.5
20260506025732 20 248 8.0 11.3 0.00 0.00 0.00 19 1011.5
20260506025616 20 257 8.0 11.3 0.00 0.00 0.00 19 1011.4
20260506024615 20 227 8.0 14.5 0.00 0.00 0.00 19 1011.1
20260506023618 20 228 9.7 16.1 0.00 0.00 0.00 20 1011.1
20260506022616 20 226 14.5 22.5 0.00 0.00 0.00 21 1010.9
20260506021616 21 231 11.3 17.7 0.00 0.00 0.00 21 1010.6
20260506020616 21 216 14.5 24.1 0.00 0.00 0.00 20 1010.4
20260506020516 21 232 9.7 14.5 0.00 0.00 0.00 20 1010.4
20260506014632 21 219 11.3 16.1 0.00 0.00 0.00 19 1010.2
20260506013632 22 225 12.9 19.3 0.00 0.00 0.00 19 1010.1
20260506011815 22 231 17.7 25.7 0.00 0.00 0.00 17 1009.9
20260506010816 22 219 12.9 16.1 0.00 0.00 0.00 19 1010.0
20260506004814 22 236 14.5 24.1 0.00 0.00 0.00 18 1009.9
20260506003817 22 222 12.9 22.5 0.00 0.00 0.00 19 1009.9
20260506002830 22 204 14.5 22.5 0.00 0.00 0.00 19 1009.9
20260506001817 22 214 11.3 16.1 0.00 0.00 0.00 19 1009.8